Temperature
18 18 18 19 19 17 17 17 16 17 17 17 17 16 16 17 16 17 17 17 18 18 18 17 17 17 17 17 16 16 16 16 15 15 15 15 15 15 14 14 14 14 14 14
19 19 19 19 18 18 18 17 17 17 17 17 17 17 16 16 16 16 17 17 17 18 18 17 17 17 17 17 16 16 16 16 15 15 15 14 14 14 14 14 14 13 13 13
17 18 19 18 18 18 18 17 17 17 18 16 15 15 16 16 17 17 18 18 18 18 18 18 17 17 17 16 16 16 16 15 15 15 15 14 14 14 14 13 13 13 13 13
16 18 18 18 19 18 18 18 17 17 17 16 16 17 17 18 18 18 18 18 18 18 18 17 17 17 16 16 16 16 15 15 15 14 14 14 14 14 13 13 13 13 12 12
15 17 17 18 19 18 18 18 17 16 16 16 16 16 16 18 18 19 19 18 18 18 18 17 17 17 16 16 16 15 15 15 14 14 14 14 13 13 13 13 12 12 12 12
14 17 17 19 19 19 19 18 17 16 16 15 16 15 16 18 18 18 18 18 18 17 17 17 16 16 16 16 15 15 15 14 14 14 14 13 13 13 12 12 12 12 11 11
14 16 16 17 18 19 19 19 19 18 17 16 16 18 19 19 19 18 18 18 17 17 17 17 16 16 16 15 15 15 14 14 14 14 13 13 13 12 12 12 12 11 11 11
13 16 17 17 17 18 18 19 19 19 18 18 18 19 19 19 19 18 18 17 17 17 16 16 16 16 16 15 15 14 14 14 14 13 13 13 12 12 12 11 11 11 11 11
14 16 16 16 17 19 19 19 19 19 19 19 18 18 19 18 18 18 17 17 17 16 16 16 15 15 15 15 14 14 14 13 13 13 13 12 12 12 11 11 11 11 11 10
13 14 15 16 17 18 19 20 20 20 19 19 19 19 18 18 18 17 17 17 16 16 16 15 15 15 15 14 14 14 13 13 13 12 12 12 12 11 11 11 11 10 10 10
13 13 15 17 17 18 19 19 19 19 19 19 19 18 18 18 17 17 17 16 16 16 15 15 15 14 14 14 13 13 13 13 12 12 12 12 11 11 11 10 10 10 10 9
14 15 14 16 17 18 18 18 18 18 18 18 18 18 18 17 17 17 16 16 15 15 15 15 14 14 14 13 13 13 12 12 12 12 11 11 11 10 10 10 10 9 9 9
16 16 16 16 17 17 18 18 18 18 18 18 17 17 17 17 16 16 16 15 15 15 15 14 14 13 13 12 12 12 12 12 11 11 11 10 10 10 10 10 9 9 9 9
16 16 15 16 16 17 17 17 17 17 17 17 17 17 16 16 16 15 15 15 15 14 14 13 13 13 12 12 12 12 11 11 11 10 10 10 10 9 9 9 9 9 9 8
15 15 16 16 15 15 16 16 16 16 16 16 16 16 16 15 15 15 14 14 14 13 13 13 12 12 12 11 11 11 11 11 10 10 10 9 9 9 9 9 8 8 8 8
14 15 15 15 15 15 15 15 15 15 15 15 15 15 15 15 14 14 14 13 13 13 12 12 12 12 11 11 11 11 10 10 10 9 9 9 9 8 8 8 8 8 8 7
13 13 13 13 14 14 14 14 14 14 14 14 14 14 14 14 13 13 13 13 12 12 12 12 12 11 11 11 10 10 10 10 9 9 9 8 8 8 8 8 7 7 7 7
13 13 14 14 13 13 13 13 13 13 13 13 13 13 13 13 13 13 12 12 12 11 11 11 11 11 10 10 10 10 9 9 9 8 8 8 8 8 7 7 7 7 7 7
12 12 13 13 13 13 13 12 13 13 12 12 12 12 12 12 12 12 11 11 11 11 11 10 10 10 10 10 9 9 9 9 8 8 8 7 7 7 7 7 7 6 6 6
12 12 12 12 12 12 12 12 12 12 12 12 12 11 11 11 11 11 11 11 10 10 10 10 10 9 9 9 9 8 8 8 8 7 7 7 7 7 6 6 6 6 6 6
11 11 11 11 11 11 11 11 11 11 11 11 11 11 11 10 10 10 10 10 10 9 9 9 9 9 9 8 8 8 8 7 7 7 7 7 6 6 6 6 6 5 5 5
10 10 10 10 10 10 10 10 10 10 10 10 10 10 10 9 9 9 9 9 9 9 9 8 8 8 8 8 7 7 7 7 7 6 6 6 6 6 5 5 5 5 5 5
9 10 9 9 9 9 9 9 10 10 9 9 9 9 9 9 9 9 8 8 8 8 8 8 8 7 7 7 7 7 7 6 6 6 6 6 5 5 5 5 5 4 4 4
9 9 9 9 9 9 9 9 9 9 9 9 8 8 8 8 8 8 8 7 7 7 7 7 7 7 7 6 6 6 6 6 6 5 5 5 5 5 4 4 4 4 4 4
8 8 8 8 8 8 8 8 8 8 8 8 8 8 7 7 7 7 7 7 7 6 6 6 6 6 6 6 6 5 5 5 5 5 4 4 4 4 4 4 4 3 3 3
7 7 8 8 8 8 8 7 7 7 7 7 7 7 7 7 7 6 6 6 6 6 6 6 6 5 5 5 5 5 5 4 4 4 4 4 4 3 3 3 3 3 3 3
7 7 7 7 7 7 7 7 7 7 6 6 6 6 6 6 6 6 5 5 5 5 5 5 5 5 4 4 4 4 4 4 4 3 3 3 3 3 3 2 2 2 2 2
Wind_Speed
5 4 4 4 6 9 7 8 8 8 8 9 8 9 9 8 8 9 9 9 9 9 7 6 6 5 5 5 5 5 6 5 3 3 3 4 4 4 4 4 4 3 3 4
2 2 3 3 4 8 7 6 6 4 7 5 5 6 7 9 11 10 10 10 10 9 9 8 8 7 6 5 5 6 6 4 3 4 4 4 4 4 4 4 3 4 4 3
2 3 1 4 7 8 6 6 8 9 9 4 5 9 11 11 11 11 11 11 11 10 9 9 8 8 8 6 6 6 5 4 3 4 4 3 3 4 4 3 3 4 3 3
2 2 4 8 4 7 7 6 7 6 5 8 8 7 5 8 11 11 11 11 10 10 9 7 7 7 7 7 7 6 5 4 3 4 3 3 3 3 2 2 2 2 2 2
4 3 5 7 3 6 7 5 6 8 6 6 7 6 1 4 8 10 11 10 9 9 8 8 8 8 8 7 6 6 5 4 3 4 4 3 3 1 1 2 2 1 1 2
4 4 6 7 3 4 5 4 6 9 10 9 9 5 6 6 8 8 9 8 9 8 8 9 8 9 9 8 7 6 5 4 4 4 4 4 3 1 1 1 0 1 1 2
5 5 7 7 2 5 5 8 5 9 11 13 10 7 5 8 8 9 9 9 10 10 9 8 8 9 9 7 6 5 5 4 4 4 4 4 2 1 1 1 1 1 2 3
6 4 8 3 5 8 7 2 5 8 10 10 7 6 7 9 10 11 10 9 10 10 8 7 8 9 9 7 5 5 5 4 3 3 3 3 3 2 1 2 1 1 2 3
8 7 4 3 5 4 2 3 4 7 7 10 9 7 7 8 9 10 10 10 8 9 9 6 6 8 9 6 5 6 5 4 3 3 2 3 3 2 1 1 1 1 1 3
3 6 5 5 4 3 3 4 3 6 9 11 9 9 8 8 8 8 8 9 8 9 9 7 5 6 6 6 6 7 6 4 3 3 2 1 1 2 2 2 1 1 2 3
3 6 5 4 3 1 1 3 6 6 7 9 11 9 8 8 8 8 8 8 8 9 9 8 6 5 5 6 7 6 5 4 3 2 2 1 1 2 3 3 4 3 3 3
6 6 4 4 3 0 3 4 6 8 6 6 8 9 8 8 7 8 8 8 8 8 8 7 7 6 5 6 7 7 5 3 3 2 2 1 1 2 3 4 5 5 5 5
4 2 3 2 1 1 3 3 4 6 8 7 6 8 9 7 6 7 8 8 9 8 8 7 7 6 5 5 6 6 5 4 3 2 2 2 1 1 2 4 5 5 6 6
3 2 1 1 1 2 4 5 5 6 5 6 7 7 8 7 7 7 8 7 7 7 7 7 6 5 5 6 6 6 5 5 4 3 3 2 2 2 2 2 4 5 6 9
2 2 3 2 3 4 5 7 8 6 5 5 6 7 8 8 8 7 6 6 7 7 6 6 6 5 4 6 6 6 5 4 4 3 3 3 2 2 2 3 4 5 5 6
1 2 4 5 4 4 5 6 7 5 5 5 5 5 6 6 6 5 5 7 8 7 6 6 5 5 5 6 5 4 4 5 4 3 2 2 2 2 3 4 4 5 5 6
4 3 4 4 4 4 4 4 6 6 5 5 5 5 6 7 6 5 4 5 6 6 6 6 5 4 5 6 6 4 4 4 4 2 3 3 3 4 4 4 5 6 7 7
4 5 5 7 6 5 4 4 4 5 5 4 5 7 7 7 7 5 5 5 5 3 2 4 4 4 4 5 5 4 4 3 3 3 3 3 4 4 5 5 6 7 7 7
4 4 4 4 5 6 5 4 4 4 4 5 6 6 5 5 5 5 5 5 5 4 3 3 4 4 4 4 4 3 3 3 3 3 3 4 4 4 5 6 6 7 7 7
3 4 5 5 5 5 5 4 4 4 3 4 5 5 4 4 4 5 5 4 4 4 4 3 4 3 4 4 4 3 3 4 4 3 3 4 4 5 5 6 6 7 7 7
3 4 5 5 4 4 4 5 5 4 3 4 5 5 4 3 3 4 5 3 3 2 2 3 3 3 3 3 4 3 4 4 4 4 4 5 5 6 6 6 7 7 7 7
2 3 4 4 4 3 3 3 4 4 4 4 3 4 4 3 3 3 3 3 3 3 2 2 2 4 4 3 3 3 4 4 4 4 4 5 5 6 6 7 7 7 7 8
2 3 4 4 4 3 3 3 3 4 4 3 4 4 4 3 3 3 2 2 2 2 2 3 4 5 5 3 3 3 4 4 5 5 5 5 6 6 7 7 7 7 7 7
2 3 3 3 4 4 3 2 2 2 3 2 2 3 4 3 1 1 2 2 2 1 1 3 4 5 3 2 3 3 4 5 5 5 6 6 6 6 7 7 7 7 8 8
2 2 3 4 4 3 3 3 2 2 2 1 1 1 2 3 3 2 1 2 2 1 1 3 4 4 2 2 3 4 4 5 6 5 5 6 6 7 7 7 7 8 8 8
2 2 2 2 3 3 3 3 2 2 2 1 0 0 0 1 1 1 1 1 2 2 1 2 2 2 2 3 4 5 5 5 6 6 6 6 7 7 7 8 9 8 8 8
1 1 1 1 1 2 3 3 3 2 2 3 2 1 1 1 1 1 1 1 1 2 2 2 2 3 3 4 4 5 5 5 5 6 6 6 7 7 8 9 8 8 7 8
Wind_Direction
226 222 181 198 191 181 188 187 188 218 217 231 209 196 185 171 159 152 154 157 161 160 158 151 144 140 137 135 132 128 118 109 107 100 89 80 71 64 63 66 68 65 59 42
283 241 204 230 223 195 202 196 207 221 245 240 182 157 163 167 164 165 167 168 166 161 158 159 155 150 142 139 134 126 121 120 110 101 90 83 79 73 66 58 53 60 56 46
254 300 75 269 231 200 197 198 184 208 225 173 160 178 183 179 175 176 174 170 168 167 166 164 161 155 152 148 133 126 125 119 113 111 102 94 88 78 69 60 58 56 45 43
143 99 229 246 244 186 188 218 207 206 197 177 183 179 173 175 178 178 174 170 170 167 161 156 150 146 141 135 135 134 130 127 127 121 113 102 93 85 68 64 63 53 34 26
134 183 275 287 234 174 176 243 216 198 191 155 132 98 71 195 183 179 174 169 167 163 154 147 148 147 138 137 138 137 144 150 152 144 132 120 112 107 92 79 53 32 17 16
137 163 232 252 251 166 124 268 226 185 180 158 136 150 223 192 171 162 153 150 148 143 137 144 151 145 140 145 147 158 169 167 159 153 147 147 155 148 123 120 115 32 7 346
164 202 254 255 245 129 161 237 203 177 174 165 176 188 169 150 155 152 145 145 144 143 147 155 152 146 144 149 167 175 160 149 143 149 152 153 143 131 118 100 69 24 351 332
157 188 248 249 149 179 215 235 168 171 170 168 158 132 131 139 143 142 139 140 144 145 146 147 151 148 149 165 176 152 141 139 140 141 147 139 135 126 113 111 88 351 340 330
189 210 251 244 223 250 219 201 191 172 164 152 145 149 143 140 143 145 144 145 145 143 140 145 156 154 156 171 156 144 137 140 145 138 136 142 146 147 133 131 148 278 299 305
247 271 276 276 279 278 223 203 183 158 150 150 147 146 142 142 144 144 145 148 146 141 143 152 158 156 161 159 151 141 143 150 149 142 140 138 150 162 165 188 216 247 269 281
258 280 307 308 291 293 87 111 117 121 135 146 141 145 148 148 150 152 149 149 150 153 155 160 157 153 152 151 145 143 148 155 157 158 162 167 189 208 206 220 215 222 237 244
226 233 207 260 296 145 120 122 131 127 120 129 143 147 145 147 151 150 148 148 149 150 151 155 154 154 155 153 151 148 151 163 170 173 179 185 214 296 279 255 268 261 255 256
231 231 189 232 351 95 124 125 129 133 139 137 137 141 141 140 143 141 143 150 159 162 160 157 155 159 166 158 154 154 162 172 175 178 183 191 198 218 291 313 308 296 291 293
209 140 143 179 171 108 110 106 99 97 108 124 129 129 130 127 130 140 156 164 156 148 148 151 154 168 175 163 158 162 165 173 172 182 190 195 206 219 228 259 298 304 303 300
244 201 184 150 112 105 108 110 106 103 104 105 118 128 133 138 147 157 155 142 133 133 142 148 157 180 173 161 162 169 171 179 182 186 191 199 212 227 241 253 264 279 293 300
299 87 111 118 123 119 118 123 126 129 127 123 126 135 139 138 135 130 132 140 143 155 164 163 177 188 170 164 165 172 184 191 184 185 195 209 224 236 252 259 266 270 274 279
133 134 133 137 142 138 140 145 146 146 138 137 144 137 126 120 117 126 144 157 159 163 166 172 186 181 169 170 171 178 182 194 198 197 212 223 232 241 249 254 260 266 268 269
180 172 163 159 155 145 130 121 127 133 139 142 135 129 132 138 150 162 162 147 133 131 166 187 178 166 170 175 176 177 181 193 199 211 226 235 244 246 250 256 262 267 275 280
96 104 110 119 130 133 133 130 130 130 129 132 134 142 149 155 157 152 141 139 148 172 216 209 177 162 173 186 174 171 182 196 211 226 233 250 258 257 257 260 265 268 272 276
99 102 103 103 106 115 123 123 120 119 125 133 132 134 140 153 151 146 143 158 189 203 203 188 172 176 189 196 183 178 191 204 217 232 238 243 253 261 262 264 266 269 272 272
123 120 119 120 118 119 129 134 132 135 137 138 146 155 161 160 150 146 144 172 236 209 179 174 172 192 197 198 193 192 204 214 223 232 240 248 256 262 265 268 270 272 274 274
144 136 133 130 126 123 127 131 133 136 133 130 134 138 137 142 146 148 172 197 212 195 172 182 191 205 209 202 192 203 216 223 230 236 241 248 254 261 266 270 272 273 274 273
150 143 139 140 143 140 112 110 122 131 138 144 147 152 158 170 169 159 199 234 208 206 192 205 220 229 231 204 201 216 227 233 237 240 245 249 253 258 263 268 270 272 274 274
130 132 136 130 122 120 120 126 120 124 131 140 152 158 152 145 159 214 201 210 221 223 212 232 242 248 246 208 217 229 237 242 245 247 249 252 256 259 262 266 270 272 272 272
137 128 128 130 136 152 158 144 112 105 105 103 108 143 155 165 177 204 195 199 224 249 252 267 273 272 247 224 230 241 247 250 252 254 252 258 261 263 265 266 267 271 272 273
158 164 177 178 174 167 159 149 147 154 144 136 41 268 130 136 155 164 175 215 235 250 249 260 272 274 245 242 245 248 251 264 272 268 261 264 266 267 268 268 268 269 270 271
141 151 147 133 151 164 162 161 166 180 179 172 193 240 234 208 173 189 203 223 252 260 258 260 261 260 258 257 258 260 261 260 261 262 262 262 263 265 266 267 270 271 271 272
Height
1485 1482 1483 1485 1486 1490 1493 1496 1502 1497 1495 1489 1487 1488 1489 1492 1495 1498 1502 1506 1509 1513 1517 1521 1524 1526 1529 1531 1533 1535 1537 1538 1539 1539 1540 1540 1540 1540 1540 1540 1540 1540 1539 1539
1484 1481 1482 1484 1483 1484 1487 1489 1491 1491 1489 1481 1483 1486 1488 1491 1493 1496 1500 1504 1508 1512 1515 1519 1522 1525 1528 1530 1532 1534 1535 1537 1538 1538 1539 1539 1540 1540 1539 1539 1539 1539 1538 1538
1491 1484 1483 1489 1480 1480 1482 1482 1484 1487 1482 1479 1482 1484 1485 1487 1490 1493 1497 1501 1505 1509 1513 1517 1520 1524 1526 1529 1531 1533 1534 1535 1536 1537 1538 1538 1539 1539 1539 1538 1538 1538 1537 1536
1493 1489 1497 1482 1469 1470 1474 1475 1475 1474 1474 1476 1477 1479 1482 1485 1487 1491 1495 1499 1504 1507 1512 1516 1519 1523 1525 1528 1530 1531 1533 1534 1535 1536 1537 1537 1537 1538 1537 1537 1537 1536 1536 1535
1496 1496 1490 1476 1468 1469 1473 1474 1469 1471 1472 1475 1477 1480 1483 1484 1487 1489 1493 1498 1502 1506 1510 1514 1518 1521 1524 1526 1528 1530 1531 1532 1533 1534 1535 1536 1536 1536 1536 1536 1535 1535 1534 1534
1495 1494 1495 1476 1463 1463 1468 1475 1465 1466 1468 1472 1476 1484 1482 1481 1485 1489 1493 1497 1501 1505 1509 1513 1516 1519 1522 1524 1526 1528 1529 1531 1532 1533 1534 1534 1535 1535 1535 1535 1534 1534 1533 1532
1492 1492 1484 1466 1462 1464 1478 1472 1460 1461 1464 1468 1470 1472 1475 1478 1482 1487 1491 1496 1500 1504 1507 1511 1514 1517 1520 1522 1524 1526 1528 1529 1530 1531 1532 1533 1533 1533 1533 1533 1533 1532 1531 1530
1489 1490 1484 1461 1462 1465 1462 1456 1456 1458 1461 1464 1467 1471 1474 1477 1481 1485 1490 1494 1498 1502 1506 1509 1513 1515 1517 1520 1522 1524 1526 1527 1528 1529 1530 1531 1531 1531 1531 1531 1530 1530 1529 1528
1474 1472 1462 1459 1458 1457 1456 1456 1456 1457 1460 1463 1466 1470 1473 1477 1480 1484 1488 1493 1497 1500 1504 1507 1511 1513 1515 1518 1520 1522 1524 1525 1526 1527 1528 1529 1529 1529 1529 1528 1528 1527 1526 1525
1468 1462 1458 1457 1456 1455 1455 1455 1455 1457 1459 1462 1465 1469 1473 1476 1480 1484 1488 1491 1495 1499 1502 1505 1508 1511 1514 1516 1518 1520 1521 1523 1524 1525 1526 1526 1526 1526 1526 1526 1525 1524 1523 1522
1466 1460 1457 1454 1454 1454 1454 1454 1455 1457 1460 1462 1466 1469 1473 1475 1479 1483 1486 1490 1494 1497 1500 1503 1506 1509 1512 1514 1516 1517 1519 1520 1521 1522 1523 1523 1523 1524 1523 1523 1522 1521 1520 1519
1462 1457 1457 1455 1454 1454 1454 1455 1456 1457 1460 1463 1466 1469 1472 1475 1479 1482 1485 1488 1492 1495 1498 1501 1504 1506 1509 1511 1513 1515 1516 1517 1519 1519 1520 1520 1520 1521 1520 1520 1519 1518 1517 1516
1455 1454 1454 1454 1454 1455 1455 1456 1457 1459 1460 1463 1466 1469 1472 1475 1478 1481 1484 1487 1490 1493 1496 1499 1502 1504 1506 1509 1511 1512 1513 1514 1515 1516 1517 1517 1517 1517 1516 1516 1515 1514 1513 1512
1453 1453 1453 1454 1454 1455 1456 1457 1458 1460 1461 1464 1466 1469 1472 1475 1477 1480 1483 1486 1488 1491 1494 1497 1499 1502 1504 1506 1508 1509 1511 1512 1512 1513 1513 1513 1513 1513 1512 1511 1510 1509 1508 1507
1451 1451 1452 1453 1454 1455 1456 1457 1458 1460 1462 1464 1466 1469 1471 1474 1476 1479 1482 1485 1487 1490 1492 1495 1497 1499 1502 1503 1505 1506 1507 1508 1509 1509 1510 1510 1509 1509 1508 1507 1506 1504 1503 1502
1450 1450 1450 1451 1452 1454 1455 1456 1458 1460 1462 1464 1466 1469 1471 1473 1476 1478 1481 1483 1485 1487 1490 1492 1494 1497 1499 1500 1501 1503 1504 1504 1505 1505 1505 1505 1505 1504 1503 1502 1501 1499 1497 1496
1447 1448 1449 1450 1451 1453 1455 1456 1458 1460 1462 1464 1466 1468 1470 1472 1475 1477 1479 1481 1483 1485 1487 1489 1492 1494 1495 1497 1498 1499 1500 1500 1501 1501 1501 1500 1500 1499 1498 1497 1495 1493 1492 1490
1446 1446 1447 1449 1450 1452 1454 1456 1458 1459 1461 1463 1466 1467 1469 1471 1473 1475 1477 1479 1481 1483 1485 1487 1489 1490 1492 1493 1494 1495 1495 1496 1496 1496 1496 1495 1494 1494 1492 1491 1489 1487 1485 1484
1445 1446 1447 1449 1450 1451 1453 1455 1457 1459 1461 1463 1464 1466 1468 1470 1472 1473 1475 1477 1478 1480 1482 1484 1485 1487 1488 1489 1490 1490 1491 1491 1491 1491 1491 1490 1489 1488 1486 1485 1483 1481 1479 1477
1444 1446 1447 1449 1450 1452 1453 1455 1456 1458 1460 1462 1463 1465 1466 1468 1470 1471 1473 1474 1476 1478 1480 1481 1482 1483 1484 1485 1486 1486 1486 1486 1486 1486 1485 1484 1483 1482 1480 1479 1476 1474 1472 1470
1443 1445 1446 1448 1450 1451 1453 1454 1455 1457 1459 1461 1462 1463 1465 1466 1468 1469 1470 1472 1474 1475 1477 1478 1478 1479 1480 1481 1481 1482 1482 1481 1481 1480 1480 1478 1477 1475 1474 1472 1470 1467 1465 1462
1442 1444 1445 1447 1448 1450 1452 1453 1455 1456 1458 1459 1461 1462 1463 1465 1466 1467 1468 1470 1471 1472 1473 1474 1474 1475 1476 1476 1477 1477 1477 1476 1476 1475 1474 1472 1471 1469 1467 1465 1462 1460 1457 1455
1441 1443 1444 1446 1447 1448 1450 1452 1454 1455 1457 1458 1459 1460 1461 1463 1464 1465 1465 1467 1468 1469 1469 1470 1471 1471 1472 1472 1472 1472 1471 1471 1470 1469 1467 1466 1464 1462 1460 1458 1455 1453 1450 1447
1441 1442 1443 1445 1446 1447 1449 1451 1452 1454 1455 1457 1458 1459 1460 1461 1462 1463 1464 1465 1465 1466 1466 1466 1467 1467 1467 1467 1467 1466 1465 1465 1464 1462 1461 1459 1457 1455 1453 1450 1448 1445 1443 1440
1440 1441 1442 1443 1444 1446 1447 1449 1450 1452 1454 1455 1456 1457 1458 1459 1460 1460 1461 1462 1462 1463 1463 1463 1463 1463 1462 1462 1462 1461 1460 1459 1457 1456 1454 1452 1450 1448 1446 1443 1440 1438 1435 1432
1439 1440 1442 1443 1444 1445 1446 1448 1449 1450 1451 1452 1454 1455 1456 1457 1457 1458 1458 1459 1459 1459 1459 1459 1459 1458 1457 1457 1456 1455 1454 1452 1451 1449 1447 1445 1443 1441 1438 1436 1433 1430 1428 1425
1438 1439 1440 1441 1443 1444 1445 1446 1447 1448 1449 1450 1451 1452 1453 1454 1454 1454 1454 1455 1455 1455 1455 1454 1454 1453 1452 1451 1450 1449 1447 1446 1444 1443 1440 1438 1436 1434 1431 1429 1426 1423 1420 1418